Wind_Speed
26 30 29 32 33 29 21 22 14 21 22 24 19 13 13 24 23 17 16 13 12 12 11 12 13 15 16 17 19 20 22 26 28 29 28 24 23 21 19 17 16 15 12 12
24 25 29 32 33 29 27 28 27 25 27 24 23 19 20 25 22 15 13 13 9 12 12 14 16 17 18 21 24 27 29 27 28 26 22 23 22 23 21 18 15 14 14 12
23 23 25 17 30 29 24 25 26 24 25 22 20 18 12 17 13 11 9 3 5 5 9 14 16 19 22 22 27 27 24 21 25 24 25 24 22 21 19 16 15 15 14 14
19 20 24 24 17 28 28 25 24 24 22 20 19 12 16 8 8 9 3 1 4 4 5 8 15 19 26 25 26 28 27 22 27 27 26 25 23 22 20 18 17 16 14 13
18 18 22 29 22 20 16 20 19 19 14 17 17 9 12 11 5 1 3 6 6 6 7 10 11 18 25 29 25 28 31 29 32 32 30 29 26 24 23 23 19 16 16 14
18 22 23 22 24 13 30 18 18 19 18 16 12 7 2 7 5 2 1 4 6 8 8 8 10 14 27 29 26 31 35 34 35 34 33 29 28 27 23 19 17 17 16 14
18 18 19 24 26 23 13 10 6 11 13 12 8 4 14 7 2 2 2 3 6 8 8 7 5 10 26 28 26 29 33 34 36 36 29 27 27 26 22 20 19 18 17 15
10 13 20 18 23 22 10 11 3 14 8 8 10 7 3 2 0 2 4 4 5 5 6 4 2 11 20 25 27 27 29 34 37 31 31 29 26 24 20 20 20 20 20 17
8 7 7 17 19 14 19 25 9 11 8 4 11 10 11 7 4 4 5 5 3 3 4 3 4 9 16 22 24 24 29 34 33 33 30 28 27 24 23 21 22 21 20 17
14 12 16 12 21 16 15 20 15 15 11 10 11 10 9 7 5 6 5 5 4 4 6 6 7 8 10 14 19 22 29 33 35 32 30 27 24 24 24 25 25 22 19 17
18 19 18 12 21 12 15 17 16 12 11 12 13 11 9 7 7 7 6 6 5 5 8 10 10 10 7 11 16 24 28 32 31 29 27 25 22 24 23 25 23 21 20 18
11 18 18 16 13 8 14 17 13 15 14 13 12 13 11 9 7 8 8 8 7 7 11 12 12 13 8 12 19 24 28 29 29 28 25 21 20 20 17 22 23 21 20 19
17 23 24 25 23 21 20 20 18 16 13 12 13 12 11 10 7 6 8 9 9 14 10 15 14 13 11 14 21 25 28 28 25 25 21 22 22 21 24 23 23 21 19 20
26 21 25 24 24 22 23 24 23 24 22 21 18 15 13 12 10 12 13 13 15 17 13 16 18 15 15 17 23 25 23 24 23 23 24 24 20 19 18 22 25 23 21 20
18 18 22 24 23 23 23 23 24 27 26 25 23 22 19 17 15 13 15 16 16 15 15 18 18 17 17 19 26 27 27 26 22 25 25 21 19 18 17 18 18 17 18 21
22 22 22 22 22 23 25 28 28 26 26 27 27 26 26 24 20 16 15 16 16 18 18 20 20 20 19 23 27 28 27 24 24 22 21 19 19 19 17 16 16 15 16 15
15 16 15 15 16 19 20 18 22 21 21 22 23 24 25 24 19 18 17 18 13 16 18 20 20 19 21 24 26 27 25 22 19 17 17 17 17 18 17 17 16 16 16 17
16 19 20 19 18 17 18 14 13 14 16 18 18 18 18 19 22 25 22 15 14 16 16 18 18 19 20 22 24 25 24 22 19 16 15 17 16 16 17 17 16 16 15 16
18 19 17 16 16 18 19 18 15 14 12 11 13 17 20 21 23 21 16 15 17 18 19 17 17 18 21 24 26 23 19 17 17 15 15 16 18 16 17 18 17 17 16 19
18 16 13 15 17 18 20 19 18 19 15 12 11 10 8 10 17 15 12 15 16 18 18 19 19 20 23 24 23 17 17 18 16 16 19 16 18 21 19 17 17 18 19 18
15 14 13 15 18 17 16 17 19 20 18 19 16 14 14 10 11 12 14 15 17 16 17 18 20 21 21 23 25 16 18 19 18 18 18 20 18 19 20 19 19 19 18 17
15 14 14 16 16 14 13 13 13 18 19 19 15 14 12 12 13 14 15 14 18 18 17 19 19 18 18 20 21 19 18 17 16 17 17 18 19 18 18 18 18 17 18 18
14 13 13 12 13 12 11 8 3 5 10 14 15 13 13 13 15 18 18 15 17 19 17 18 19 19 17 18 22 21 15 16 18 18 17 18 17 17 16 17 16 16 16 17
13 12 11 10 9 10 7 4 2 3 7 9 11 12 13 13 15 15 15 15 16 18 17 19 18 16 17 18 18 17 15 15 15 16 15 15 15 17 17 17 17 16 16 17
11 10 10 10 7 6 7 5 3 3 5 7 9 10 10 11 13 16 14 16 16 18 16 15 15 15 17 18 16 14 13 13 13 13 14 15 15 15 17 17 16 15 15 15
10 8 8 9 7 5 4 2 0 2 5 8 9 10 11 11 12 14 14 15 17 15 14 15 15 17 18 17 15 13 12 12 14 15 14 14 14 16 15 14 15 14 15 14
8 8 6 7 6 4 1 2 3 5 6 8 11 12 12 12 13 12 13 15 14 13 10 11 12 14 15 15 13 12 11 12 13 12 13 13 13 13 13 14 14 13 12 14
Wind_Direction
270 273 275 281 269 267 249 260 258 274 270 271 274 254 267 282 280 279 275 252 239 233 218 207 191 190 186 183 181 184 183 186 187 187 187 189 186 177 177 184 188 188 182 189
284 281 274 271 259 262 273 272 273 272 278 281 278 264 211 240 257 262 267 272 258 229 224 215 207 196 192 181 183 189 192 195 193 188 192 184 181 179 181 181 177 182 182 163
273 285 281 290 259 253 253 261 267 275 283 284 278 276 246 261 268 254 258 192 282 259 231 221 217 207 199 203 205 204 203 221 215 201 186 185 184 178 172 168 177 162 158 165
265 275 270 273 293 246 249 257 258 262 273 276 274 270 266 217 260 253 232 340 280 286 279 259 221 212 207 208 214 207 214 218 199 191 188 183 176 168 163 167 163 165 160 159
255 256 280 289 279 261 261 274 264 275 276 272 265 244 254 235 175 141 291 298 319 316 296 276 260 220 203 224 224 218 215 209 196 190 185 179 173 172 172 170 171 166 164 158
240 255 259 267 286 337 314 250 267 248 258 252 254 229 259 57 141 163 354 327 324 327 320 307 282 231 216 228 230 227 218 208 198 192 188 178 179 185 181 171 161 164 161 160
230 244 256 263 274 283 278 256 300 294 246 247 225 208 138 164 151 78 27 359 351 342 335 329 323 193 210 225 225 227 220 205 194 191 186 184 185 182 167 161 162 161 163 168
231 240 258 317 271 265 239 346 300 284 225 213 209 147 190 186 98 321 316 337 337 353 329 316 263 223 222 221 224 223 216 205 195 188 187 187 185 178 164 166 166 170 168 167
289 290 217 250 282 300 301 311 283 289 280 208 221 214 220 228 248 289 297 312 317 331 273 260 228 231 225 224 221 216 205 197 190 188 186 185 181 176 166 169 172 174 172 168
302 295 315 354 295 276 264 295 253 253 271 224 231 223 230 235 256 271 278 278 275 248 236 221 203 222 225 222 215 204 193 188 186 184 181 182 182 176 174 175 179 181 175 176
284 287 310 280 267 309 292 273 283 251 241 240 237 240 248 262 267 274 274 273 260 239 226 213 223 215 226 208 201 188 186 185 183 182 183 181 177 178 185 192 192 186 185 184
276 298 306 298 323 317 323 310 282 277 249 245 241 249 255 262 269 277 280 281 259 227 252 233 222 228 219 200 186 183 182 182 182 181 180 172 167 167 180 189 186 188 191 189
284 289 288 293 290 284 284 286 288 265 259 266 254 245 251 254 259 264 272 276 255 251 247 229 223 225 213 194 186 191 186 182 183 177 171 171 174 178 184 191 194 198 202 203
284 295 287 276 280 283 282 274 259 252 246 245 246 249 253 257 259 260 272 272 258 258 257 231 225 222 211 199 192 190 183 181 185 172 174 177 181 180 182 186 189 196 203 210
283 280 285 288 281 276 272 269 263 260 248 244 248 247 247 253 256 257 265 263 252 247 248 228 223 221 212 203 195 190 186 188 181 176 182 185 180 181 184 187 192 197 202 210
301 294 287 286 286 286 282 274 264 255 255 256 255 255 253 253 257 257 239 257 240 243 234 224 223 222 211 201 198 195 197 194 186 187 188 184 183 184 187 188 189 194 203 204
298 297 304 296 296 293 280 266 257 256 260 261 260 259 254 249 241 237 221 252 242 233 234 223 222 218 207 201 199 197 194 186 183 182 185 187 188 190 193 195 198 202 219 217
293 287 289 287 289 291 292 287 274 267 268 265 257 249 241 232 226 228 233 234 227 216 212 216 215 207 199 196 192 189 187 186 182 188 192 193 195 197 200 203 206 208 210 223
303 299 291 285 287 285 282 280 282 270 272 267 249 240 237 238 231 233 232 220 210 203 202 202 198 194 192 187 185 184 187 184 187 193 199 203 201 202 207 208 211 212 212 224
307 304 291 289 293 293 288 280 270 270 248 235 227 226 231 245 225 219 216 207 205 200 198 187 185 188 189 189 184 185 194 195 193 198 205 206 212 207 208 215 215 219 221 220
315 309 301 306 309 306 296 287 272 257 247 236 238 241 247 249 219 207 194 181 193 191 186 183 183 184 185 191 186 192 199 199 197 203 216 205 217 218 215 215 218 219 224 226
320 314 308 313 321 320 316 307 282 245 236 237 232 237 232 225 207 188 184 191 189 184 182 181 180 186 186 193 186 201 203 199 206 207 218 219 215 218 218 220 220 222 224 228
314 313 309 319 326 325 332 336 318 225 221 227 228 223 215 217 195 185 180 190 185 184 182 182 188 194 197 188 194 211 208 207 209 219 215 224 218 217 217 220 222 223 228 232
314 317 317 319 330 341 342 354 54 165 186 189 193 201 207 187 178 177 188 183 180 180 187 194 195 194 197 203 210 217 218 215 214 215 217 218 218 217 220 224 226 227 228 232
320 327 331 320 333 336 345 11 40 133 165 175 178 173 174 176 185 177 180 179 174 183 192 192 197 200 206 212 217 219 220 218 213 213 214 217 218 220 222 224 226 228 230 231
331 326 327 328 324 318 318 3 68 133 139 143 149 159 162 165 167 167 166 167 174 188 194 196 201 202 207 215 220 221 218 209 212 210 217 219 223 221 224 223 228 229 228 233
339 343 343 341 341 340 298 123 121 130 137 145 145 145 149 148 155 157 160 169 178 189 195 201 202 203 209 219 219 218 211 208 222 209 211 215 221 222 221 229 232 233 229 229
Height
1437 1432 1426 1420 1411 1405 1416 1419 1421 1411 1408 1401 1397 1396 1402 1402 1394 1394 1394 1397 1397 1402 1405 1407 1407 1410 1411 1411 1415 1416 1419 1421 1423 1425 1428 1432 1437 1440 1444 1447 1451 1456 1458 1461
1437 1429 1422 1413 1405 1405 1398 1394 1388 1390 1389 1388 1387 1386 1394 1391 1388 1390 1391 1392 1394 1397 1402 1406 1406 1407 1410 1409 1411 1415 1415 1419 1421 1425 1428 1432 1435 1439 1442 1445 1449 1454 1457 1460
1437 1424 1413 1417 1398 1389 1391 1388 1386 1382 1378 1377 1377 1378 1381 1384 1385 1385 1388 1393 1397 1395 1397 1399 1404 1405 1408 1408 1409 1411 1412 1416 1421 1423 1425 1429 1433 1437 1440 1444 1449 1453 1457 1460
1435 1428 1418 1388 1387 1380 1378 1376 1375 1372 1372 1372 1371 1372 1381 1380 1383 1385 1390 1393 1396 1395 1396 1396 1396 1400 1402 1403 1405 1407 1409 1411 1415 1418 1423 1428 1432 1436 1441 1445 1450 1453 1457 1461
1434 1418 1402 1390 1381 1376 1369 1371 1364 1364 1365 1367 1367 1370 1374 1376 1381 1387 1391 1393 1393 1393 1393 1393 1394 1394 1394 1395 1399 1401 1405 1407 1410 1413 1418 1425 1429 1434 1438 1442 1447 1451 1455 1459
1416 1413 1403 1381 1373 1373 1370 1360 1363 1362 1361 1362 1365 1369 1373 1381 1382 1386 1388 1390 1391 1392 1391 1390 1389 1389 1386 1387 1392 1396 1399 1402 1405 1411 1415 1422 1427 1431 1435 1441 1447 1451 1456 1459
1401 1400 1385 1378 1374 1373 1388 1360 1354 1354 1355 1360 1363 1368 1378 1382 1384 1386 1387 1388 1387 1388 1388 1387 1386 1386 1383 1384 1387 1392 1397 1401 1405 1408 1414 1421 1424 1430 1434 1441 1446 1448 1453 1457
1396 1400 1388 1377 1368 1368 1371 1361 1360 1360 1359 1363 1367 1373 1378 1380 1382 1384 1385 1385 1386 1386 1387 1386 1385 1386 1385 1386 1386 1389 1395 1399 1404 1410 1415 1418 1425 1430 1434 1440 1443 1446 1448 1453
1393 1378 1379 1378 1379 1372 1373 1367 1365 1367 1356 1363 1368 1372 1376 1378 1379 1381 1383 1383 1383 1385 1387 1387 1384 1383 1383 1385 1387 1389 1394 1399 1406 1409 1414 1418 1422 1426 1433 1438 1441 1444 1446 1451
1387 1375 1371 1379 1376 1371 1371 1372 1366 1365 1364 1366 1369 1371 1374 1376 1377 1378 1380 1381 1382 1383 1385 1385 1384 1382 1382 1384 1387 1389 1393 1400 1404 1409 1412 1417 1421 1426 1431 1435 1437 1441 1445 1449
1381 1375 1370 1369 1369 1367 1366 1364 1362 1363 1364 1366 1369 1370 1372 1373 1375 1376 1377 1379 1380 1380 1382 1382 1381 1380 1381 1383 1388 1392 1395 1399 1403 1407 1411 1416 1420 1425 1428 1432 1435 1439 1443 1446
1376 1373 1371 1370 1370 1372 1370 1367 1365 1365 1365 1366 1368 1369 1370 1371 1372 1374 1375 1376 1377 1376 1377 1378 1379 1380 1379 1384 1388 1391 1393 1398 1402 1406 1410 1415 1421 1426 1429 1431 1433 1438 1441 1444
1374 1373 1372 1371 1370 1369 1369 1369 1367 1366 1366 1366 1367 1367 1369 1368 1369 1370 1373 1374 1374 1372 1373 1375 1376 1377 1379 1382 1387 1390 1393 1397 1401 1406 1411 1416 1419 1421 1422 1428 1432 1436 1438 1441
1367 1367 1365 1365 1364 1365 1364 1362 1361 1361 1362 1363 1365 1365 1366 1366 1366 1366 1368 1369 1369 1369 1370 1372 1374 1375 1378 1381 1385 1390 1394 1397 1400 1405 1410 1413 1416 1420 1422 1424 1428 1431 1435 1439
1362 1363 1362 1360 1359 1358 1358 1357 1356 1354 1354 1356 1358 1359 1361 1362 1363 1363 1362 1363 1364 1365 1366 1368 1370 1372 1376 1379 1383 1388 1391 1395 1399 1404 1407 1411 1415 1418 1421 1424 1426 1429 1432 1435
1363 1363 1362 1359 1357 1356 1355 1351 1349 1348 1349 1350 1352 1353 1355 1356 1359 1359 1357 1357 1358 1360 1362 1365 1367 1370 1373 1377 1381 1386 1390 1394 1398 1402 1406 1409 1412 1416 1419 1422 1426 1429 1430 1433
1362 1359 1357 1356 1355 1352 1347 1345 1343 1342 1343 1344 1345 1347 1349 1349 1352 1354 1353 1351 1354 1356 1358 1361 1364 1368 1371 1375 1379 1384 1389 1393 1397 1401 1404 1408 1411 1414 1418 1421 1425 1428 1429 1431
1359 1357 1354 1352 1350 1348 1344 1341 1340 1340 1340 1340 1340 1341 1342 1344 1346 1347 1347 1347 1350 1353 1356 1359 1362 1366 1369 1374 1379 1384 1388 1392 1396 1400 1404 1406 1410 1413 1416 1419 1422 1425 1427 1427
1355 1352 1349 1347 1345 1343 1341 1339 1338 1336 1336 1335 1335 1336 1338 1340 1342 1343 1344 1344 1347 1351 1353 1357 1361 1365 1369 1373 1378 1383 1387 1391 1396 1400 1403 1405 1407 1411 1414 1416 1419 1421 1423 1423
1350 1347 1344 1342 1340 1337 1334 1333 1333 1332 1332 1333 1334 1334 1335 1336 1337 1338 1340 1342 1346 1348 1352 1356 1360 1364 1368 1373 1379 1383 1387 1390 1394 1397 1399 1402 1404 1407 1409 1412 1415 1417 1419 1421
1346 1343 1341 1338 1335 1332 1329 1327 1326 1326 1328 1330 1331 1333 1333 1334 1335 1336 1339 1342 1345 1348 1352 1356 1360 1364 1368 1372 1378 1382 1385 1388 1391 1394 1396 1399 1401 1403 1406 1408 1411 1413 1414 1416
1343 1340 1338 1335 1332 1329 1326 1322 1320 1320 1323 1326 1328 1330 1331 1332 1334 1336 1339 1342 1344 1349 1353 1356 1360 1364 1367 1371 1376 1379 1382 1385 1388 1391 1393 1395 1397 1400 1402 1404 1406 1408 1410 1411
1340 1338 1335 1333 1331 1327 1324 1321 1319 1319 1321 1323 1325 1327 1330 1331 1333 1335 1338 1341 1345 1349 1353 1356 1359 1363 1367 1371 1374 1376 1379 1382 1385 1387 1390 1391 1394 1396 1398 1400 1402 1404 1405 1406
1338 1335 1333 1332 1330 1328 1325 1323 1321 1321 1321 1323 1325 1327 1328 1330 1333 1336 1338 1342 1345 1349 1352 1355 1359 1363 1367 1369 1372 1375 1377 1379 1382 1384 1386 1388 1390 1393 1395 1396 1398 1400 1401 1402
1336 1334 1333 1331 1330 1329 1326 1325 1324 1323 1323 1324 1326 1327 1329 1331 1334 1336 1339 1342 1346 1349 1352 1356 1360 1363 1366 1368 1370 1373 1375 1377 1379 1381 1383 1385 1387 1389 1391 1392 1394 1395 1396 1398
1335 1334 1332 1330 1329 1328 1327 1327 1326 1326 1326 1326 1327 1329 1331 1333 1335 1338 1341 1344 1347 1350 1353 1355 1358 1361 1364 1366 1368 1370 1372 1375 1376 1378 1380 1382 1384 1386 1387 1389 1390 1391 1393 1394
1336 1334 1333 1331 1329 1328 1327 1327 1327 1327 1328 1329 1329 1331 1333 1335 1337 1340 1342 1345 1347 1350 1352 1354 1357 1360 1362 1364 1366 1368 1370 1372 1373 1375 1378 1380 1382 1383 1385 1386 1387 1388 1389 1390